(490551) = 2009 VC89

Discovered at Kitt Peak on 2009-09-16 by Spacewatch.

Orbit

Orbit type: Main Belt

Note: WebGL enabled browser required.

epoch2023-09-13.0
epoch JD2460200.5
perihelion date2019-03-06.45416
perihelion JD2458548.95416
argument of perihelion (°)38.58483
ascending node (°)32.20393
inclination (°)8.25322
eccentricity0.2138080
perihelion distance (AU)2.1713435
Tisserand w.r.t. Jupiter3.3
ΔV w.r.t. Earth (km/sec)9.6
semimajor axis (AU)2.7618488
mean anomaly (°)354.64565
mean daily motion (°/day)0.21473560
aphelion distance (AU)3.352
period (years)4.59
P-vector [x]0.33249428
P-vector [y]0.82576281
P-vector [z]0.45559119
Q-vector [x]-0.93999735
Q-vector [y]0.25097989
Q-vector [z]0.23111484
absolute magnitude17.34
phase slope0.15
uncertainty0
referenceMPEC 2024-C06
observations used166
oppositions8
arc length (days)7079
first opposition used2004
last opposition used2024
residual rms (arc-secs)0.65
perturbers coarse indicatorM-v
perturbers precise indicator003Ek
first observation date used2004-09-13.0
last observation date used2024-01-31.0
computer nameMPCLINUX
JD of orbit computation2457849.368891
perihelion JD uncertainty (days)1.3012E-04
argument of perihelion uncertainty (°)3.6969E-05
ascending node uncertainty (°)3.2336E-05
inclination uncertainty (°)3.4372E-06
eccentricity uncertainty 1.8071E-07
perihelion distance uncertainty (AU)4.4030E-07
Minimum Orbit Intersection Distances (in AU)
for orbit epoch: 2460200.5, reference: E2024-BE5
Mercury1.8637
Venus1.45522
Earth1.19105
Mars0.64863
Jupiter2.00924
Saturn6.65249
Uranus15.4939
Neptune27.1867

Observations

169 total observations over interval: 2004 09 13.30878 – 2024 01 31.370881
These data are available for download (format description).

Date (UT) J2000 RA J2000 Dec Magn Location Ref
2004 09 13.30878 23 51 06.71 -10 40 07.1 20.5 V 691 – Steward Observatory, Kitt Peak-Spacewatch MPS 381253
2004 09 13.33622 23 51 05.15 -10 40 12.6 20.4 V 691 – Steward Observatory, Kitt Peak-Spacewatch MPS 381253
2004 09 13.36424 23 51 03.55 -10 40 18.4 20.3 V 691 – Steward Observatory, Kitt Peak-Spacewatch MPS 381253
2009 09 16.38381 03 46 20.73 +20 26 13.8 21.2 V 291 – LPL/Spacewatch II MPS 372101
2009 09 16.38960 03 46 20.93 +20 26 15.8 21.2 V 291 – LPL/Spacewatch II MPS 372101
2009 09 16.39540 03 46 21.14 +20 26 18.0 21.5 V 291 – LPL/Spacewatch II MPS 372101
2009 11 10.92881 03 30 55.89 +24 28 08.1 19.6 V J75 – OAM Observatory, La Sagra MPS 305241
2009 11 10.94146 03 30 55.16 +24 28 08.6 19.8 V J75 – OAM Observatory, La Sagra MPS 305241
2009 11 10.95410 03 30 54.36 +24 28 09.6 19.2 V J75 – OAM Observatory, La Sagra MPS 305241
2009 11 11.20883 03 30 38.79 +24 28 40.1   691 – Steward Observatory, Kitt Peak-Spacewatch MPS 305241
2009 11 11.22604 03 30 37.68 +24 28 42.3   691 – Steward Observatory, Kitt Peak-Spacewatch MPS 305241
2009 11 11.24325 03 30 36.60 +24 28 44.4   691 – Steward Observatory, Kitt Peak-Spacewatch MPS 305241
2009 11 26.10439 03 15 13.29 +24 45 53.4 20.3 V 691 – Steward Observatory, Kitt Peak-Spacewatch MPS 305241
2009 11 26.12209 03 15 12.21 +24 45 54.3 19.8 V 691 – Steward Observatory, Kitt Peak-Spacewatch MPS 305241
2009 11 26.13980 03 15 11.13 +24 45 54.8 20.0 V 691 – Steward Observatory, Kitt Peak-Spacewatch MPS 305241
2010 02 09.537528 03 28 17.79 +26 42 00.9   C51 – WISE MPS 313612
2010 02 09.669958 03 28 28.17 +26 42 30.4   C51 – WISE MPS 313612
2010 02 09.802263 03 28 38.49 +26 42 59.9   C51 – WISE MPS 313612
2010 02 09.934567 03 28 48.80 +26 43 28.6   C51 – WISE MPS 313612
2010 02 10.066872 03 28 59.21 +26 43 59.6   C51 – WISE MPS 332009
2010 02 10.133087 03 29 04.41 +26 44 13.6   C51 – WISE MPS 313612
2010 02 10.199303 03 29 09.60 +26 44 28.7   C51 – WISE MPS 313612
2010 02 10.265391 03 29 14.79 +26 44 44.2   C51 – WISE MPS 332009
2010 02 10.331606 03 29 20.04 +26 44 57.9   C51 – WISE MPS 313612
2010 02 10.39770 03 29 25.25 +26 45 13.0   C51 – WISE MPS 332009
2010 02 10.463911 03 29 30.48 +26 45 27.7   C51 – WISE MPS 313612
2010 02 10.530127 03 29 35.65 +26 45 43.3   C51 – WISE MPS 332009
2010 02 10.662431 03 29 46.18 +26 46 12.0   C51 – WISE MPS 313612
2010 02 10.794735 03 29 56.68 +26 46 41.9   C51 – WISE MPS 332009
2010 02 10.927039 03 30 07.20 +26 47 12.0   C51 – WISE MPS 313612
2011 03 30.37193 12 51 39.96 -00 36 49.2 21.4 V G96 – Mt. Lemmon Survey MPS 381253
2011 03 30.37778 12 51 39.63 -00 36 47.8 21.2 V G96 – Mt. Lemmon Survey MPS 381253
2011 03 30.38361 12 51 39.27 -00 36 46.5 21.6 V G96 – Mt. Lemmon Survey MPS 381253
2011 03 30.38942 12 51 38.98 -00 36 45.7 21.0 V G96 – Mt. Lemmon Survey MPS 381253
2015 01 21.35122 08 57 54.97 +31 53 22.2 21.2 V 703 – Catalina Sky Survey MPS 562693
2015 01 21.35624 08 57 54.70 +31 53 24.6 19.8 V 703 – Catalina Sky Survey MPS 562693
2015 01 21.36625 08 57 54.00 +31 53 26.8 21.2 V 703 – Catalina Sky Survey MPS 562693
2015 01 24.38836 08 54 45.275 +32 05 31.94 20.1 w F51 – Pan-STARRS 1, Haleakala MPS 567572
2015 01 24.39995 08 54 44.514 +32 05 34.60 20.1 w F51 – Pan-STARRS 1, Haleakala MPS 567572
2015 01 24.41157 08 54 43.746 +32 05 37.36 20.2 w F51 – Pan-STARRS 1, Haleakala MPS 567572
2015 01 24.42328 08 54 42.974 +32 05 40.03 20.1 w F51 – Pan-STARRS 1, Haleakala MPS 567572
2015 01 27.52293 08 51 25.125 +32 16 11.53 20.1 w F51 – Pan-STARRS 1, Haleakala MPS 567572
2015 01 27.53455 08 51 24.351 +32 16 13.52 20.1 w F51 – Pan-STARRS 1, Haleakala MPS 567572
2015 01 27.54620 08 51 23.578 +32 16 15.48 20.1 w F51 – Pan-STARRS 1, Haleakala MPS 567572
2015 01 27.55786 08 51 22.803 +32 16 17.51 20.1 w F51 – Pan-STARRS 1, Haleakala MPS 567572
2015 01 28.36131 08 50 31.54 +32 18 40.5 20.4 r G45 – Space Surveillance Telescope, Atom Site MPS 583325
2015 01 28.37367 08 50 30.68 +32 18 42.9 20.3 r G45 – Space Surveillance Telescope, Atom Site MPS 583325
2015 01 28.37775 08 50 30.46 +32 18 42.7 20.2 r G45 – Space Surveillance Telescope, Atom Site MPS 583325
2015 01 28.38182 08 50 30.15 +32 18 44.2 20.3 r G45 – Space Surveillance Telescope, Atom Site MPS 583325
2015 02 12.29317 08 35 29.700 +32 37 06.58 20.3 w F51 – Pan-STARRS 1, Haleakala MPS 571006
2015 02 12.33309 08 35 27.449 +32 37 06.00 20.5 w F51 – Pan-STARRS 1, Haleakala MPS 571006
2015 02 13.29216 08 34 36.812 +32 36 32.69 20.5 w F51 – Pan-STARRS 1, Haleakala MPS 580333
2015 02 13.30549 08 34 36.078 +32 36 32.20 20.5 w F51 – Pan-STARRS 1, Haleakala MPS 580333
2015 02 13.31892 08 34 35.342 +32 36 31.85 20.5 w F51 – Pan-STARRS 1, Haleakala MPS 580333
2015 02 18.65593 08 30 17.66 +32 29 48.0 20.9 R D29 – Purple Mountain Observatory, XuYi Station MPS 585692
2015 02 18.67092 08 30 16.99 +32 29 47.9 20.4 R D29 – Purple Mountain Observatory, XuYi Station MPS 585692
2015 02 18.68591 08 30 16.28 +32 29 46.2 20.2 R D29 – Purple Mountain Observatory, XuYi Station MPS 585692
2015 02 23.23717 08 27 15.444 +32 19 30.10 20.7 r F51 – Pan-STARRS 1, Haleakala MPS 585692
2015 02 23.24889 08 27 14.991 +32 19 28.44 20.7 r F51 – Pan-STARRS 1, Haleakala MPS 585692
2015 02 23.26108 08 27 14.536 +32 19 26.77 20.7 r F51 – Pan-STARRS 1, Haleakala MPS 585692
2015 03 24.36565 08 23 45.263 +30 03 22.85 21.6 w F51 – Pan-STARRS 1, Haleakala MPS 592418
2015 03 24.38160 08 23 45.554 +30 03 16.72 21.4 w F51 – Pan-STARRS 1, Haleakala MPS 592418
2015 03 24.39084 08 23 45.743 +30 03 13.32 21.7 w F51 – Pan-STARRS 1, Haleakala MPS 592418
2015 03 24.39414 08 23 45.797 +30 03 11.77 21.9 w F51 – Pan-STARRS 1, Haleakala MPS 592418
2015 03 24.40338 08 23 45.976 +30 03 08.48 21.6 w F51 – Pan-STARRS 1, Haleakala MPS 592418
2015 03 24.40670 08 23 46.037 +30 03 07.23 21.5 w F51 – Pan-STARRS 1, Haleakala MPS 592418
2016 05 03.29407 14 31 32.72 -16 58 43.6 21.8 V W84 – Cerro Tololo-DECam MPS 785271
2016 05 03.29728 14 31 32.54 -16 58 43.1   W84 – Cerro Tololo-DECam MPS 785271
2016 05 03.30047 14 31 32.36 -16 58 42.6   W84 – Cerro Tololo-DECam MPS 785271
2016 05 03.30367 14 31 32.18 -16 58 42.2   W84 – Cerro Tololo-DECam MPS 785271
2016 05 03.30685 14 31 32.01 -16 58 41.7   W84 – Cerro Tololo-DECam MPS 785271
2016 05 04.23358 14 30 41.60 -16 56 30.0 21.9 V W84 – Cerro Tololo-DECam MPS 785271
2016 05 04.23676 14 30 41.42 -16 56 29.5   W84 – Cerro Tololo-DECam MPS 785271
2016 05 04.23995 14 30 41.25 -16 56 29.0   W84 – Cerro Tololo-DECam MPS 785271
2016 05 04.24312 14 30 41.06 -16 56 28.6   W84 – Cerro Tololo-DECam MPS 785271
2016 05 04.24628 14 30 40.89 -16 56 28.1   W84 – Cerro Tololo-DECam MPS 785271
2016 05 04.24948 14 30 40.71 -16 56 27.7   W84 – Cerro Tololo-DECam MPS 785271
2016 05 04.25266 14 30 40.53 -16 56 27.2   W84 – Cerro Tololo-DECam MPS 785271
2016 05 04.25584 14 30 40.36 -16 56 26.7   W84 – Cerro Tololo-DECam MPS 785271
2016 05 04.25904 14 30 40.17 -16 56 26.3   W84 – Cerro Tololo-DECam MPS 785271
2016 05 04.26222 14 30 39.99 -16 56 25.8   W84 – Cerro Tololo-DECam MPS 785271
2018 09 19.54692 01 56 25.865 +07 55 28.89 20.5 w F52 – Pan-STARRS 2, Haleakala MPS 921828
2018 09 19.55708 01 56 25.568 +07 55 29.19 20.3 w F52 – Pan-STARRS 2, Haleakala MPS 921828
2018 09 19.56723 01 56 25.273 +07 55 29.51 20.4 w F52 – Pan-STARRS 2, Haleakala MPS 921828
2018 09 19.57734 01 56 24.982 +07 55 29.84 20.5 w F52 – Pan-STARRS 2, Haleakala MPS 921828
2018 10 05.41092 01 46 02.92 +07 54 01.0 19.9 G G96 – Mt. Lemmon Survey MPS 924115
2018 10 05.41749 01 46 02.56 +07 54 00.6 20.1 G G96 – Mt. Lemmon Survey MPS 924115
2018 10 05.42262 01 46 02.31 +07 54 00.3 19.7 G G96 – Mt. Lemmon Survey MPS 924115
2018 10 05.42775 01 46 02.05 +07 53 59.9 19.6 G G96 – Mt. Lemmon Survey MPS 924115
2018 10 10.45820 01 41 36.928 +07 50 31.23 19.8 w F52 – Pan-STARRS 2, Haleakala MPS 927298
2018 10 10.47063 01 41 36.211 +07 50 30.78 19.8 w F52 – Pan-STARRS 2, Haleakala MPS 927298
2018 10 10.49554 01 41 34.781 +07 50 29.52 19.7 w F52 – Pan-STARRS 2, Haleakala MPS 927298
2018 10 15.51623 01 36 50.421 +07 46 21.32 19.8 w F52 – Pan-STARRS 2, Haleakala MPS 931116
2018 10 15.52800 01 36 49.706 +07 46 20.74 19.7 w F52 – Pan-STARRS 2, Haleakala MPS 931116
